Location: Ch�risy
(50.2331°N, 2.9131°E)
Time: 23:34:45
(UTC+00:00)

Cosmos 1680 Rocket - Pass Details

Date: 17 January 2021
Orbit: 761 x 780 km, 74.1° (Epoch: 01 March)

Event Time Altitude Azimuth Distance (km) Brightness Sun altitude
Rises 18:22:24 0° 339° (NNW) 3,258 6.9 -19.4°
Reaches altitude 10° 18:24:58 10° 348° (NNW) 2,323 6.0 -19.8°
Enters shadow 18:29:35 38° 48° (NE) 1,173 4.0 -20.5°
